Weather History for KFTW - February, 2014

Change the Weather History Date:

Wednesday, February 12, 2014

  Actual Average Record
Temperature  
Mean Temperature 40 °F -  
Max Temperature 50 °F 58 °F 72 °F (2009)
Min Temperature 30 °F 37 °F 24 °F (2006)
Degree Days  
Heating Degree Days 25    
Moisture  
Dew Point 29 °F    
Average Humidity 68    
Maximum Humidity 85    
Minimum Humidity 48    
Precipitation  
Precipitation 0.00 in - - ()
Sea Level Pressure  
Sea Level Pressure 30.15 in    
Wind  
Wind Speed 5 mph (NW)    
Max Wind Speed 9 mph    
Max Gust Speed -    
Visibility 9 miles    
Events      
Averages and records for this station are not official NWS values.
T = Trace of Precipitation, MM = Missing Value Source: NWS Daily Summary

Daily Weather History Graph

Daily Weather History Graph

Search for Another Location

Airport or City:

Trip Planner

Search our weather history database for the weather conditions in past years. The results will help you decide how hot, cold, wet, or windy it might be!

Date:

Astronomy

Feb. 12, 2014 Rise Set
Actual Time 7:15 AM CST 6:12 PM CST
Civil Twilight 6:50 AM CST 6:37 PM CST
Nautical Twilight 6:21 AM CST 7:06 PM CST
Astronomical Twilight 5:52 AM CST 7:35 PM CST
Moon 4:29 PM CST (2/12) 5:30 AM CST (2/12)
Length of Visible Light 11h 47m
Length of Day
10h 56m
Waxing Gibbous, 95% of the Moon is Illuminated
Feb 12
Waxing Gibbous
Feb 14
Full
Feb 22
Last Quarter
Mar 1
New
Mar 8
First Quarter

Hourly Weather History & Observations

Time (CST) Temp. Windchill Dew Point Humidity Pressure Visibility Wind Dir Wind Speed Gust Speed Precip Events Conditions
12:53 AM 32.0 °F 25.6 °F 25.0 °F 75% 30.24 in 10.0 mi NNW 6.9 mph - N/A   Overcast
1:53 AM 32.0 °F 28.7 °F 25.0 °F 75% 30.19 in 10.0 mi NNW 3.5 mph - N/A   Overcast
2:53 AM 30.9 °F 26.2 °F 26.1 °F 82% 30.19 in 10.0 mi WNW 4.6 mph - N/A   Overcast
3:53 AM 30.9 °F 25.2 °F 26.1 °F 82% 30.19 in 9.0 mi WNW 5.8 mph - N/A   Overcast
4:53 AM 30.9 °F 24.3 °F 26.1 °F 82% 30.18 in 8.0 mi NW 6.9 mph - N/A   Overcast
5:53 AM 30.9 °F 26.2 °F 27.0 °F 85% 30.18 in 7.0 mi NW 4.6 mph - N/A   Overcast
6:53 AM 32.0 °F 25.6 °F 27.0 °F 82% 30.22 in 7.0 mi NW 6.9 mph - N/A   Overcast
7:53 AM 32.0 °F 25.6 °F 27.0 °F 82% 30.22 in 6.0 mi NW 6.9 mph - N/A   Haze
8:53 AM 34.0 °F 27.2 °F 27.0 °F 75% 30.24 in 7.0 mi NNW 8.1 mph - N/A   Overcast
9:53 AM 37.0 °F 30.4 °F 27.0 °F 67% 30.23 in 10.0 mi NW 9.2 mph - N/A   Overcast
10:53 AM 39.0 °F 32.8 °F 25.0 °F 57% 30.22 in 10.0 mi NNW 9.2 mph - N/A   Overcast
11:53 AM 41.0 °F 36.4 °F 28.9 °F 62% 30.20 in 10.0 mi West 6.9 mph - N/A   Overcast
12:53 PM 42.1 °F 40.2 °F 28.9 °F 60% 30.17 in 10.0 mi Variable 3.5 mph - N/A   Partly Cloudy
1:53 PM 46.0 °F 43.1 °F 30.9 °F 56% 30.12 in 10.0 mi West 5.8 mph - N/A   Clear
2:53 PM 48.0 °F - 30.9 °F 52% 30.09 in 10.0 mi NNW 8.1 mph - N/A   Clear
3:53 PM 50.0 °F - 32.0 °F 50% 30.07 in 10.0 mi WNW 8.1 mph - N/A   Clear
4:53 PM 50.0 °F - 30.9 °F 48% 30.07 in 10.0 mi WNW 5.8 mph - N/A   Clear
5:53 PM 48.0 °F - 30.9 °F 52% 30.08 in 10.0 mi WNW 4.6 mph - N/A   Clear
6:53 PM 46.0 °F 44.8 °F 30.0 °F 54% 30.09 in 10.0 mi NW 3.5 mph - N/A   Clear
7:53 PM 44.1 °F - 30.9 °F 60% 30.08 in 10.0 mi Calm Calm - N/A   Clear
8:53 PM 41.0 °F - 30.9 °F 67% 30.08 in 10.0 mi Calm Calm - N/A   Clear
9:53 PM 39.9 °F - 30.9 °F 70% 30.08 in 10.0 mi Calm Calm - N/A   Clear
10:53 PM 37.9 °F - 30.0 °F 73% 30.07 in 10.0 mi Calm Calm - N/A   Clear
11:53 PM 36.0 °F - 30.0 °F 79% 30.06 in 10.0 mi Calm Calm - N/A   Clear